DW8618 Nerja ES current weather conditions

sailwx.info

Wind from 128 at 2 knots gusting 5

Air temperature 18.3° C
Dewpoint 11.6° C

Last reported at 2014-Oct-25 19:45 UTC.
Time now 2014-Oct-25 20:43 UTC

Location: N 36°46' W 003°52'.
View on Google Maps.

See reports from other nearby stations

  
Tides and Currents Weather Stations Pressure Air Temp Water Temp Dewpoint Dewpoint Depression Visibility Wind Speed Wind Dir Waves Ship Positions
date/time (UTC)wind fromknots sea level pressurealtimeterstation pressurevisibilityair tempwater tempwave heightnotes
2014-Oct-25 19:45 128 2 gusting 5 18.3
2014-Oct-25 19:30 150 18.9
2014-Oct-25 19:15 161 18.9
2014-Oct-25 19:01 161 19.4
2014-Oct-25 18:45 161 19.4
2014-Oct-25 18:31 163 20.0
2014-Oct-25 18:15 163 20.6
2014-Oct-25 18:01 163 20.6
2014-Oct-25 17:45 163 21.1
2014-Oct-25 17:30 163 21.7
2014-Oct-25 17:16 163 21.7
2014-Oct-25 17:01 163 22.2
2014-Oct-25 16:45 163 22.2
2014-Oct-25 16:31 163 0 gusting 3 22.2
2014-Oct-25 16:16 163 22.8
2014-Oct-25 16:01 163 22.2
2014-Oct-25 15:45 167 22.2
2014-Oct-25 15:30 167 22.8
2014-Oct-25 15:16 168 22.8
2014-Oct-25 15:01 167 0 gusting 2 23.3
2014-Oct-25 14:45 170 0 gusting 4 23.3
2014-Oct-25 14:31 174 22.8
2014-Oct-25 14:15 159 1 gusting 6 23.3
2014-Oct-25 14:01 156 1 gusting 6 23.3
2014-Oct-25 13:45 173 2 gusting 5 23.9
2014-Oct-25 13:31 172 23.3
2014-Oct-25 13:15 173 0 gusting 5 22.8
2014-Oct-25 13:01 164 3 gusting 5 22.8
2014-Oct-25 12:45 163 1 gusting 6 23.3
2014-Oct-25 12:30 161 1 gusting 6 23.3
2014-Oct-25 12:15 169 0 gusting 5 23.3
2014-Oct-25 12:01 175 1 gusting 5 22.8
2014-Oct-25 11:46 179 1 gusting 6 23.3
2014-Oct-25 11:30 183 4 gusting 6 22.8
2014-Oct-25 11:15 193 1 gusting 4 22.8
2014-Oct-25 11:01 197 2 gusting 4 22.2
2014-Oct-25 10:45 203 2 gusting 4 22.8
2014-Oct-25 10:31 208 2 gusting 4 23.3
2014-Oct-25 10:15 210 1 gusting 4 22.8
2014-Oct-25 10:01 210 0 gusting 3 22.8
2014-Oct-25 09:45 211 22.8
2014-Oct-25 09:30 217 0 gusting 4 22.8
2014-Oct-25 09:16 245 22.8
2014-Oct-25 09:01 327 23.3
2014-Oct-25 08:45 327 22.2
2014-Oct-25 08:30 327 21.1
2014-Oct-25 08:15 330 0 gusting 3 20.0
2014-Oct-25 08:01 329 2 gusting 5 18.9
2014-Oct-25 07:45 355 1 gusting 4 17.8
2014-Oct-25 07:31 355 17.2
2014-Oct-25 07:15 360 0 gusting 4 17.2
2014-Oct-25 07:01 005 3 gusting 5 16.7
2014-Oct-25 06:46 005 16.7
2014-Oct-25 06:30 005 16.7
2014-Oct-25 06:15 005 3 gusting 5 16.7
2014-Oct-25 06:01 005 2 gusting 4 16.7
2014-Oct-25 05:45 348 5 gusting 6 16.7
2014-Oct-25 05:30 360 3 gusting 6 16.7
2014-Oct-25 05:16 355 2 gusting 4 17.2
2014-Oct-25 05:01 017 0 gusting 4 17.2
2014-Oct-25 04:45 009 2 gusting 6 17.2
2014-Oct-25 04:30 024 0 gusting 5 17.2
2014-Oct-25 04:15 360 3 gusting 6 17.2
2014-Oct-25 04:01 324 5 gusting 6 17.2
2014-Oct-25 03:46 342 0 gusting 6 17.2
2014-Oct-25 03:30 030 3 gusting 4 17.2
2014-Oct-25 03:16 020 17.2
2014-Oct-25 03:01 335 0 gusting 6 17.2
2014-Oct-25 02:46 355 2 gusting 4 17.2
2014-Oct-25 02:31 360 1 gusting 4 17.2
2014-Oct-25 02:15 360 17.2
2014-Oct-25 02:01 350 3 gusting 5 17.8
2014-Oct-25 01:45 348 3 gusting 5 17.8
2014-Oct-25 01:30 346 3 gusting 5 17.8
2014-Oct-25 01:15 340 2 gusting 3 17.8
2014-Oct-25 01:01 339 3 gusting 4 17.8
2014-Oct-25 00:46 337 2 gusting 3 18.3
2014-Oct-25 00:30 329 2 gusting 4 17.8
2014-Oct-25 00:16 323 3 gusting 6 17.8
2014-Oct-25 00:01 325 3 gusting 6 17.2
2014-Oct-24 23:46 355 2 gusting 5 17.2
2014-Oct-24 23:31 005 3 gusting 6 17.2
2014-Oct-24 23:15 336 4 gusting 5 17.8
2014-Oct-24 23:01 355 17.8
2014-Oct-24 22:45 355 2 gusting 4 17.8
2014-Oct-24 22:30 351 3 gusting 4 17.8
2014-Oct-24 22:15 350 0 gusting 4 17.8
2014-Oct-24 22:01 355 4 gusting 6 18.3
2014-Oct-24 21:45 360 0 gusting 3 18.3
2014-Oct-24 21:30 355 0 gusting 3 18.3
2014-Oct-24 21:15 355 2 gusting 4 18.9
2014-Oct-24 21:01 351 3 gusting 5 18.9
2014-Oct-24 20:46 355 18.9
2014-Oct-24 20:30 355 18.9
2014-Oct-24 20:15 355 18.9
2014-Oct-24 20:01 355 18.9
2014-Oct-24 19:45 349 1 gusting 3 18.9
2014-Oct-24 19:30 346 19.4
2014-Oct-24 19:15 348 0 gusting 3 19.4
2014-Oct-24 19:01 342 20.0
2014-Oct-24 18:45 342 20.6
2014-Oct-24 18:30 342 20.0
2014-Oct-24 18:16 005 20.0
2014-Oct-24 18:01 005 20.6
2014-Oct-24 17:46 360 21.1
2014-Oct-24 17:30 252 21.7
2014-Oct-24 17:15 169 21.7
2014-Oct-24 17:01 169 21.7
2014-Oct-24 16:45 169 21.7
2014-Oct-24 16:30 169 21.7
2014-Oct-24 16:15 169 21.7
2014-Oct-24 16:01 169 21.7
2014-Oct-24 15:45 169 21.7
2014-Oct-24 15:30 171 3 gusting 5 22.2
2014-Oct-24 15:15 183 0 gusting 4 22.2
2014-Oct-24 15:01 184 1 gusting 4 22.8
2014-Oct-24 14:45 180 22.8
2014-Oct-24 14:15 167 0 gusting 4 22.8
2014-Oct-24 14:01 178 22.8
2014-Oct-24 13:45 180 0 gusting 5 22.8
2014-Oct-24 13:30 177 1 gusting 4 22.2
2014-Oct-24 13:15 176 22.8
2014-Oct-24 13:01 183 1 gusting 5 22.2
2014-Oct-24 12:45 173 22.2
2014-Oct-24 12:31 177 1 gusting 4 21.7
2014-Oct-24 12:15 180 0 gusting 5 21.7
2014-Oct-24 12:01 171 22.2
2014-Oct-24 11:45 174 0 gusting 4 22.2
2014-Oct-24 11:30 175 22.2
2014-Oct-24 11:16 160 22.2
2014-Oct-24 11:01 180 2 gusting 4 22.2
2014-Oct-24 10:45 178 0 gusting 3 22.2
2014-Oct-24 10:30 177 21.7
2014-Oct-24 10:15 179 0 gusting 3 21.7
2014-Oct-24 10:01 171 21.7
2014-Oct-24 09:45 162 0 gusting 3 21.7
2014-Oct-24 09:30 167 22.2
2014-Oct-24 09:15 153 22.2
2014-Oct-24 09:01 153 22.2
2014-Oct-24 08:45 142 22.2
2014-Oct-24 08:30 005 21.7
2014-Oct-24 08:15 005 20.6
2014-Oct-24 08:01 005 19.4
2014-Oct-24 07:45 360 17.2
2014-Oct-24 07:30 005 17.2
2014-Oct-24 07:15 005 16.7
2014-Oct-24 07:01 009 16.7
2014-Oct-24 06:45 009 16.1
2014-Oct-24 06:31 355 1 gusting 2 16.7
2014-Oct-24 06:16 360 1 gusting 2 16.7
2014-Oct-24 06:01 360 0 gusting 2 16.7
2014-Oct-24 05:45 360 16.7
2014-Oct-24 05:30 360 16.1
2014-Oct-24 05:16 360 16.1
2014-Oct-24 05:01 360 16.7
2014-Oct-24 04:46 360 1 gusting 2 16.7
2014-Oct-24 04:30 360 16.7
2014-Oct-24 04:15 360 16.7
2014-Oct-24 04:01 355 0 gusting 3 16.7
2014-Oct-24 03:45 355 16.7
2014-Oct-24 03:31 360 0 gusting 3 16.7
2014-Oct-24 03:15 005 0 gusting 2 17.2
2014-Oct-24 03:01 355 17.2
2014-Oct-24 02:45 355 16.7
2014-Oct-24 02:31 355 17.2
2014-Oct-24 02:15 360 17.2
2014-Oct-24 02:01 360 17.2
2014-Oct-24 01:46 355 17.2
2014-Oct-24 01:30 355 17.8
2014-Oct-24 01:15 355 17.2
2014-Oct-24 01:01 355 17.2
2014-Oct-24 00:45 355 17.2
2014-Oct-24 00:31 355 17.2
2014-Oct-24 00:15 355 17.2
2014-Oct-24 00:01 355 17.2
2014-Oct-23 23:45 355 17.8
2014-Oct-23 23:30 355 17.8
2014-Oct-23 23:16 355 17.8
2014-Oct-23 23:01 355 17.8
2014-Oct-23 22:45 360 17.8
2014-Oct-23 22:30 005 18.3
2014-Oct-23 22:16 005 18.3
2014-Oct-23 22:01 005 18.3
2014-Oct-23 21:45 005 18.3
2014-Oct-23 21:31 005 18.9
2014-Oct-23 21:15 005 18.9
2014-Oct-23 21:01 005 18.9
2014-Oct-23 20:46 005 18.9
2014-Oct-23 20:30 355 18.9
2014-Oct-23 20:15 360 18.9
2014-Oct-23 20:01 360 19.4